Regional Weather Roundup
Issued by NWS Northern Indiana

Home | Current Version | Previous Version | Graphics & Text | Print | Product List | Glossary On
Versions: 1 2 3 4 5 6 7 8 9 10 11 12 13 14 15 16 17 18 19 20 21 22 23 24 25 26 27 28 29 30 31 32 33 34 35 36 37 38 39 40 41 42 43 44 45 46 47 48 49 50
000
ASUS43 KIWX 260800
RWRIWX

KIWX WEATHER ROUNDUP
NATIONAL WEATHER SERVICE NORTHERN INDIANA
400 AM EDT WED JUL 26 2017

NOTE: "FAIR" INDICATES FEW OR NO CLOUDS BELOW 12,000 FEET WITH NO
SIGNIFICANT WEATHER AND/OR OBSTRUCTIONS TO VISIBILITY.

* THESE STATIONS ARE NOT UNDER NWS QUALITY CONTROL. THEY ALSO MAY NOT
  REPORT WEATHER SUCH AS PRECIPITATION OR FOG.

INZ001>027-260900-
NORTHERN INDIANA

CITY           SKY/WX    TMP DP  RH WIND       PRES   REMARKS
MICHIGAN CITY* CLOUDY    66  59  77 S7        30.15F
SOUTH BEND     PTCLDY    65  59  81 S5        30.17R
GOSHEN         PTCLDY    61  56  83 SE6       30.17S
MONTICELLO*    CLEAR     64  61  90 CALM      30.15S
FORT WAYNE     PTCLDY    61  58  90 E3        30.18R
PERU/GRISSOM   CLEAR     62  61  96 CALM      30.15R

$$
INZ028>050-260900-
CENTRAL INDIANA

CITY           SKY/WX    TMP DP  RH WIND       PRES   REMARKS
LAFAYETTE      CLEAR     63  60  90 CALM      30.14S
KOKOMO*        CLEAR     62  59  90 CALM      30.18R
MUNCIE*        CLEAR     64  59  83 SE3       30.17R
INDIANAPOLIS   CLEAR     66  61  84 SE9       30.15R

$$
MIZ043>046-050>051-056>058-064>065-071>073-077>080-260900-
SOUTHWEST LOWER MICHIGAN

CITY           SKY/WX    TMP DP  RH WIND       PRES   REMARKS
BATTLE CREEK   MOCLDY    63  58  83 S8        30.18S
BENTON HARBOR  CLOUDY    65  58  78 SE7       30.14F
COLDWATER*     PTCLDY    59  59 100 SE3       30.18S
HILLSDALE*     PTCLDY    59  55  88 SE3       30.19F
HOLLAND        MOCLDY    66  58  75 S3        30.16S
GRAND RAPIDS   MOCLDY    66  59  78 S5        30.16R
KALAMAZOO      PTCLDY    64  56  75 S7        30.17S
STURGIS*       MOCLDY    62  58  88 SE7       30.17S
THREE RIVERS*  FAIR      64  57  80 CALM      30.18S

$$
OHZ001>008-015>018-024>025-260900-
NORTHWEST OHIO

CITY           SKY/WX    TMP DP  RH WIND       PRES   REMARKS
DEFIANCE       PTCLDY   N/A N/A N/A CALM      30.19R
FINDLAY        CLEAR     61  58  90 CALM      30.18R
TOLEDO EXPRESS CLOUDY    59  59 100 CALM      30.19R
TOLEDO METCALF CLOUDY    62  59  90 CALM      30.20R
LIMA           CLEAR     60  59  96 CALM      30.19R

$$
AND FOR LAKE MICHIGAN COASTAL AND OPEN LAKE BUOY OBSERVATIONS

STATION/POSITION TEMP    WIND        PRES    VSBY  WAVE
                 AIR SEA DIR/SP/G                  HT/PER
                 (F)     (DEG/KT/KT) (MB)    (MI)  (FT/S)
CALUMET HARBOR    70     170/  8/ 11 1020.0S
MICHIGAN CITY     69     150/  8/ 10   N/A
BURNS HARBOR      70     170/  7/ 12 1021.3R
SAINT JOSEPH      65      CALM  /  2 1021.3
SOUTH LAKE BUOY   72 71  170/ 12/ 14 1020.1          1/ 3
4 MI NW BRIDGMAN  68 72  180/ 10/ 12 1020.7R         1
MICHIGAN CITY     70 74  170/ 12/ 16   N/A           1

$$
&&




USA.gov is the U.S. government's official web portal to all federal, state and local government web resources and services.